Terminal Aerodrome Forecast
Issued by NWS

Home | Current Version | Previous Version | Text Only | Print | Product List | Glossary On
Versions: 1 2 3 4 5 6 7 8 9 10 11 12 13 14 15 16 17 18 19 20
000
FTUS46 KPDT 272100 AAA
TAFBDN
TAF AMD
KBDN 272104Z 2721/2818 22016G26KT P6SM -SHRA SCT030 BKN080
     FM280300 22010KT P6SM -RA OVC050
     FM281200 21015G22KT P6SM -RA OVC050=

USA.gov is the U.S. government's official web portal to all federal, state and local government web resources and services.